Weather History for Driggs, ID

Change the Weather History Date:

Saturday, December 29, 2012

  Actual Average (KRXE) Record (KRXE)
Temperature  
Mean Temperature 4 °F 20 °F  
Max Temperature 14 °F 28 °F 49 °F (2011)
Min Temperature -5 °F 12 °F -3 °F (2000)
Degree Days  
Heating Degree Days 60 45  
Month to date heating degree days 1280  
Since 1 July heating degree days 3292  
Cooling Degree Days 0 0  
Month to date cooling degree days 0  
Year to date cooling degree days 208  
Moisture  
Dew Point -2 °F    
Average Humidity 81    
Maximum Humidity 92    
Minimum Humidity 71    
Precipitation  
Precipitation 0.00 in 0.04 in 0.31 in (2004)
Month to date precipitation 0.97  
Year to date precipitation 13.00  
Sea Level Pressure  
Sea Level Pressure 30.20 in    
Wind  
Wind Speed 3 mph (SE)    
Max Wind Speed 7 mph    
Max Gust Speed -    
Visibility 6 miles    
Events Fog , Snow    
T = Trace of Precipitation, MM = Missing Value Source: NWS Daily Summary

Daily Weather History Graph

Daily Weather History Graph

Search for Another Location

Airport:

Trip Planner

Search our weather history database for the weather conditions in past years. The results will help you decide how hot, cold, wet, or windy it might be!

Date:

Astronomy

Dec. 29, 2012 Rise Set
Actual Time 7:57 AM MST 4:55 PM MST
Civil Twilight 7:25 AM MST 5:28 PM MST
Nautical Twilight 6:48 AM MST 6:04 PM MST
Astronomical Twilight 6:13 AM MST 6:39 PM MST
Moon 6:35 PM MST (12/29) 8:30 AM MST (12/29)
Length of Visible Light 10h 03m
Length of Day
8h 57m
Full, 98% of the Moon is Illuminated
Dec 29
Full
Jan 4
Last Quarter
Jan 11
New
Jan 18
First Quarter
Jan 26
Full

Hourly Weather History & Observations

Time (MST) Temp. Windchill Dew Point Humidity Pressure Visibility Wind Dir Wind Speed Gust Speed Precip Events Conditions
12:08 AM 12.2 °F - 10.4 °F 92% 30.16 in 10.0 mi Calm Calm - 0.00 in Snow Light Snow
12:30 AM 12.2 °F 6.1 °F 8.6 °F 85% 30.16 in 10.0 mi ENE 3.5 mph - 0.00 in   Overcast
12:56 AM 12.0 °F 5.9 °F 8.1 °F 84% 30.28 in 10.0 mi South 3.5 mph - 0.00 in   Overcast
1:56 AM 9.1 °F - 6.1 °F 87% 30.30 in 10.0 mi Calm Calm - 0.00 in   Mostly Cloudy
2:37 AM 1.4 °F -8.3 °F -0.4 °F 92% 30.16 in 1.5 mi WSW 4.6 mph - N/A   Mostly Cloudy
2:39 AM 3.2 °F -4.2 °F -0.4 °F 85% 30.16 in 0.5 mi WSW 3.5 mph - N/A Fog Light Freezing Fog
2:46 AM 3.2 °F - -0.4 °F 85% 30.16 in 0.2 mi Calm Calm - N/A Fog Light Freezing Fog
2:56 AM 4.1 °F -3.2 °F 1.0 °F 87% 30.34 in 0.2 mi NW 3.5 mph - N/A Fog Light Freezing Fog
3:34 AM -5.8 °F - -9.4 °F 84% 30.15 in 0.2 mi Calm Calm - N/A   Haze
3:41 AM -4.0 °F - -7.6 °F 85% 30.15 in 0.2 mi Calm Calm - N/A Fog Light Freezing Fog
3:49 AM -2.2 °F - -5.8 °F 85% 30.15 in 0.2 mi Calm Calm - N/A Fog Light Freezing Fog
3:56 AM -2.9 °F -11.2 °F -6.9 °F 83% 30.35 in 0.5 mi South 3.5 mph - N/A Fog Light Freezing Fog
4:00 AM -0.4 °F -8.3 °F -5.8 °F 78% 30.15 in 0.2 mi South 3.5 mph - N/A Fog Light Freezing Fog
4:07 AM -0.4 °F -8.3 °F -5.8 °F 78% 30.15 in 0.2 mi South 3.5 mph - N/A Fog Light Freezing Fog
4:24 AM -0.4 °F -8.3 °F -5.8 °F 78% 30.15 in 0.2 mi South 3.5 mph - N/A Fog Light Freezing Fog
4:41 AM -0.4 °F -8.3 °F -5.8 °F 78% 30.15 in 0.5 mi SE 3.5 mph - N/A   Haze
4:56 AM 0.1 °F -9.7 °F -4.0 °F 83% 30.35 in 0.5 mi ESE 4.6 mph - N/A Fog Light Freezing Fog
5:09 AM -0.4 °F -8.3 °F -5.8 °F 78% 30.13 in 1.0 mi East 3.5 mph - N/A   Mist
5:11 AM -0.4 °F -8.3 °F -5.8 °F 78% 30.13 in 1.5 mi East 3.5 mph - N/A   Haze
5:14 AM -2.2 °F -12.5 °F -7.6 °F 78% 30.13 in 3.0 mi East 4.6 mph - N/A   Haze
6:04 AM -4.0 °F -12.4 °F -7.6 °F 85% 30.15 in 0.2 mi South 3.5 mph - N/A Fog Light Freezing Fog
6:14 AM -5.8 °F -18.4 °F -11.2 °F 77% 30.15 in 0.8 mi SE 5.8 mph - N/A   Haze
6:17 AM -5.8 °F -19.9 °F -11.2 °F 77% 30.14 in 1.5 mi ESE 6.9 mph - N/A   Haze
6:19 AM -5.8 °F -19.9 °F -11.2 °F 77% 30.14 in 4.0 mi ESE 6.9 mph - N/A   Haze
6:56 AM 1.0 °F -8.7 °F -2.9 °F 83% 30.34 in 10.0 mi East 4.6 mph - N/A   Clear
7:56 AM -4.0 °F -16.3 °F -8.0 °F 83% 30.36 in 10.0 mi East 5.8 mph - N/A   Clear
8:56 AM 0.1 °F -11.4 °F -4.9 °F 79% 30.32 in 10.0 mi NE 5.8 mph - N/A   Clear
9:56 AM 4.1 °F - 0.1 °F 84% 30.31 in 10.0 mi Calm Calm - N/A   Clear
10:56 AM 3.0 °F -4.4 °F -0.9 °F 84% 30.30 in 10.0 mi NE 3.5 mph - 0.00 in   Partly Cloudy
11:56 AM 7.2 °F 0.3 °F 3.0 °F 83% 30.23 in 10.0 mi SW 3.5 mph - N/A   Scattered Clouds
12:56 PM 11.1 °F 3.1 °F 8.1 °F 87% 30.17 in 10.0 mi East 4.6 mph - N/A   Scattered Clouds
1:56 PM 12.0 °F - 6.1 °F 77% 30.16 in 10.0 mi Calm Calm - N/A   Scattered Clouds
2:56 PM 14.0 °F - 6.1 °F 71% 30.16 in 10.0 mi Calm Calm - N/A   Scattered Clouds
3:56 PM 12.0 °F - 4.1 °F 71% 30.19 in 10.0 mi Calm Calm - N/A   Scattered Clouds
4:56 PM 9.1 °F 0.8 °F 3.0 °F 76% 30.17 in 10.0 mi SE 4.6 mph - N/A   Overcast
5:56 PM 8.1 °F -3.2 °F 3.0 °F 80% 30.19 in 10.0 mi ESE 6.9 mph - N/A   Overcast
6:56 PM 5.0 °F -4.1 °F -0.9 °F 76% 30.18 in 10.0 mi SE 4.6 mph - N/A   Mostly Cloudy
7:56 PM 1.0 °F -8.7 °F -4.9 °F 76% 30.23 in 10.0 mi East 4.6 mph - N/A   Mostly Cloudy
8:56 PM 0.1 °F -9.7 °F -4.9 °F 79% 30.20 in 10.0 mi East 4.6 mph - N/A   Scattered Clouds
9:56 PM 4.1 °F -3.2 °F 0.1 °F 84% 30.16 in 10.0 mi SE 3.5 mph - N/A   Overcast
10:56 PM 10.0 °F 1.8 °F 6.1 °F 84% 30.14 in 10.0 mi ESE 4.6 mph - N/A   Partly Cloudy
11:56 PM 9.1 °F - 4.1 °F 80% 30.13 in 10.0 mi Calm Calm - N/A   Clear